H1 CPF 2 NER 2020 11 5 9 310 01 glonass131 H2 1301901 9131 39155 2020 11 5 0 0 0 2020 11 8 23 45 0 900 1 1 0 0 0 1 H9 10 0 59158 0.00000 0 9388058.539 -19060784.456 -14035891.314 10 0 59158 900.00000 0 9078464.667 -17194206.015 -16443657.524 10 0 59158 1800.00000 0 8895175.584 -15033095.830 -18530403.750 10 0 59158 2700.00000 0 8876303.627 -12629552.093 -20255446.480 10 0 59158 3600.00000 0 9050092.242 -10043739.038 -21585210.407 10 0 59158 4500.00000 0 9433579.062 -7341567.397 -22493884.531 10 0 59158 5400.00000 0 10031751.721 -4592144.847 -22963920.754 10 0 59158 6300.00000 0 10837232.222 -1865104.041 -22986365.711 10 0 59158 7200.00000 0 11830502.533 772079.215 -22561020.297 10 0 59158 8100.00000 0 12980660.886 3256665.436 -21696425.057 10 0 59158 9000.00000 0 14246675.596 5533021.369 -20409673.155 10 0 59158 9900.00000 0 15579082.181 7554682.413 -18726056.116 10 0 59158 10800.00000 0 16922051.005 9286023.394 -16678550.773 10 0 59158 11700.00000 0 18215737.393 10703470.348 -14307158.790 10 0 59158 12600.00000 0 19398814.586 11796205.548 -11658112.924 10 0 59158 13500.00000 0 20411082.738 12566339.558 -8782966.493 10 0 59158 14400.00000 0 21196044.446 13028546.373 -5737584.515 10 0 59158 15300.00000 0 21703339.153 13209180.034 -2581056.665 10 0 59158 16200.00000 0 21890935.151 13144912.555 625446.646 10 0 59158 17100.00000 0 21726988.328 12880952.521 3819853.079 10 0 59158 18000.00000 0 21191291.029 12468920.731 6940379.589 10 0 59158 18900.00000 0 20276251.509 11964472.953 9926713.836 10 0 59158 19800.00000 0 18987363.942 11424769.825 12721164.065 10 0 59158 20700.00000 0 17343149.969 10905899.714 15269756.498 10 0 59158 21600.00000 0 15374574.233 10460361.812 17523260.643 10 0 59158 22500.00000 0 13123957.725 10134713.979 19438124.341 10 0 59158 23400.00000 0 10643433.050 9967482.770 20977302.061 10 0 59158 24300.00000 0 7993004.056 9987422.290 22110961.888 10 0 59158 25200.00000 0 5238288.195 10212194.261 22817058.668 10 0 59158 26100.00000 0 2448032.801 10647524.612 23081762.900 10 0 59158 27000.00000 0 -308494.327 11286872.562 22899737.215 10 0 59158 27900.00000 0 -2964134.396 12111627.466 22274254.671 10 0 59158 28800.00000 0 -5456380.158 13091827.118 21217155.510 10 0 59158 29700.00000 0 -7729727.672 14187369.818 19748641.650 10 0 59158 30600.00000 0 -9737740.642 15349672.017 17896910.896 10 0 59158 31500.00000 0 -11444741.649 16523704.424 15697635.738 10 0 59158 32400.00000 0 -12827059.545 17650323.246 13193294.572 10 0 59158 33300.00000 0 -13873780.100 18668800.025 10432366.168 10 0 59158 34200.00000 0 -14586967.276 19519444.260 7468401.362 10 0 59158 35100.00000 0 -14981344.647 20146208.096 4358988.789 10 0 59158 36000.00000 0 -15083449.326 20499162.110 1164634.217 10 0 59158 36900.00000 0 -14930293.285 20536735.790 -2052424.458 10 0 59158 37800.00000 0 -14567588.482 20227625.627 -5229442.645 10 0 59158 38700.00000 0 -14047611.291 19552287.468 -8304409.637 10 0 59158 39600.00000 0 -13426797.736 18503947.342 -11217278.169 10 0 59158 40500.00000 0 -12763173.035 17089085.608 -13911156.941 10 0 59158 41400.00000 0 -12113726.415 15327371.989 -16333440.732 10 0 59158 42300.00000 0 -11531844.596 13251052.964 -18436854.033 10 0 59158 43200.00000 0 -11064914.772 10903816.615 -20180386.324 10 0 59158 44100.00000 0 -10752200.372 8339182.677 -21530099.626 10 0 59158 45000.00000 0 -10623080.747 5618485.950 -22459791.948 10 0 59158 45900.00000 0 -10695729.897 2808538.437 -22951503.742 10 0 59158 46800.00000 0 -10976290.058 -20930.995 -22995857.950 10 0 59158 47700.00000 0 -11458574.389 -2799951.497 -22592227.929 10 0 59158 48600.00000 0 -12124310.173 -5460987.508 -21748731.264 10 0 59158 49500.00000 0 -12943910.722 -7941506.763 -20482051.007 10 0 59158 50400.00000 0 -13877741.730 -10186332.510 -18817089.385 10 0 59158 51300.00000 0 -14877826.996 -12149683.209 -16786462.261 10 0 59158 52200.00000 0 -15889920.119 -13796816.633 -14429845.573 10 0 59158 53100.00000 0 -16855853.677 -15105212.190 -11793187.800 10 0 59158 54000.00000 0 -17716066.184 -16065245.092 -8927804.778 10 0 59158 54900.00000 0 -18412200.129 -16680327.267 -5889375.245 10 0 59158 55800.00000 0 -18889661.891 -16966512.234 -2736857.197 10 0 59158 56700.00000 0 -19100036.456 -16951583.394 468653.719 10 0 59158 57600.00000 0 -19003256.305 -16673666.404 3665101.811 10 0 59158 58500.00000 0 -18569434.445 -16179425.702 6790662.450 10 0 59158 59400.00000 0 -17780285.811 -15521922.080 9784924.472 10 0 59158 60300.00000 0 -16630078.358 -14758221.672 12590042.088 10 0 59158 61200.00000 0 -15126074.707 -13946856.512 15151835.313 10 0 59158 62100.00000 0 -13288446.031 -13145242.415 17420819.223 10 0 59158 63000.00000 0 -11149661.320 -12407161.313 19353143.832 10 0 59158 63900.00000 0 -8753376.463 -11780412.189 20911427.950 10 0 59158 64800.00000 0 -6152867.677 -11304727.706 22065472.433 10 0 59158 65700.00000 0 -3409072.134 -11010042.703 22792840.163 10 0 59158 66600.00000 0 -588314.610 -10915186.453 23079292.219 10 0 59158 67500.00000 0 2240188.379 -11027053.400 22919072.011 10 0 59158 68400.00000 0 5006946.223 -11340287.800 22315031.445 10 0 59158 69300.00000 0 7644827.509 -11837496.750 21278595.653 10 0 59158 70200.00000 0 10091601.731 -12489984.563 19829565.422 10 0 59158 71100.00000 0 12292285.271 -13258979.894 17995759.166 10 0 59158 72000.00000 0 14201194.680 -14097306.372 15812499.159 10 0 59158 72900.00000 0 15783621.704 -14951428.696 13321949.716 10 0 59158 73800.00000 0 17017059.512 -15763789.698 10572317.998 10 0 59158 74700.00000 0 17891927.614 -16475340.948 7616931.292 10 0 59158 75600.00000 0 18411763.828 -17028160.288 4513207.418 10 0 59158 76500.00000 0 18592873.853 -17368045.049 1321537.742 10 0 59158 77400.00000 0 18463452.123 -17446969.816 -1895895.288 10 0 59158 78300.00000 0 18062210.462 -17225302.593 -5076342.225 10 0 59158 79200.00000 0 17436572.426 -16673682.948 -8157727.104 10 0 59158 80100.00000 0 16640510.343 -15774479.868 -11079878.194 10 0 59158 81000.00000 0 15732117.849 -14522764.957 -13785722.950 10 0 59158 81900.00000 0 14771022.367 -12926757.461 -16222421.780 10 0 59158 82800.00000 0 13815749.112 -11007720.553 -18342416.423 10 0 59158 83700.00000 0 12921150.175 -8799312.069 -20104370.980 10 0 59158 84600.00000 0 12136009.265 -6346416.477 -21473986.053 10 0 59158 85500.00000 0 11500924.782 -3703507.343 -22424669.511 10 0 59159 0.00000 0 11046561.339 -932609.518 -22938050.775 10 0 59159 900.00000 0 10792344.013 1899053.016 -23004329.093 10 0 59159 1800.00000 0 10745648.822 4721623.964 -22622449.883 10 0 59159 2700.00000 0 10901524.046 7465288.682 -21800106.962 10 0 59159 3600.00000 0 11242950.580 10062943.499 -20553572.126 10 0 59159 4500.00000 0 11741629.622 12452748.935 -18907356.836 10 0 59159 5400.00000 0 12359261.799 14580461.462 -16893714.217 10 0 59159 6300.00000 0 13049261.967 16401447.993 -14551992.439 10 0 59159 7200.00000 0 13758835.641 17882301.060 -11927853.375 10 0 59159 8100.00000 0 14431328.199 19001989.808 -9072372.807 10 0 59159 9000.00000 0 15008747.034 19752501.597 -6041040.390 10 0 59159 9900.00000 0 15434350.032 20138950.277 -2892679.472 10 0 59159 10800.00000 0 15655191.560 20179149.512 311692.147 10 0 59159 11700.00000 0 15624519.333 19902671.601 3510038.507 10 0 59159 12600.00000 0 15303922.238 19349433.266 6640496.409 10 0 59159 13500.00000 0 14665139.828 18567869.209 9642558.718 10 0 59159 14400.00000 0 13691458.483 17612770.738 12458228.235 10 0 59159 15300.00000 0 12378636.393 16542880.157 15033121.113 10 0 59159 16200.00000 0 10735318.986 15418341.138 17317500.052 10 0 59159 17100.00000 0 8782927.092 14298110.790 19267218.963 10 0 59159 18000.00000 0 6555021.745 13237440.356 20844562.414 10 0 59159 18900.00000 0 4096170.484 12285528.409 22018965.105 10 0 59159 19800.00000 0 1460360.179 11483443.272 22767598.663 10 0 59159 20700.00000 0 -1290980.164 10862400.424 23075815.067 10 0 59159 21600.00000 0 -4091267.504 10442466.311 22937438.399 10 0 59159 22500.00000 0 -6871271.774 10231742.744 22354898.837 10 0 59159 23400.00000 0 -9561740.466 10226066.681 21339205.342 10 0 59159 24300.00000 0 -12096034.303 10409239.171 19909756.013 10 0 59159 25200.00000 0 -14412666.264 10753775.597 18093987.845 10 0 59159 26100.00000 0 -16457639.353 11222147.664 15926870.447 10 0 59159 27000.00000 0 -18186486.042 11768466.924 13450251.274 10 0 59159 27900.00000 0 -19565923.840 12340540.639 10712062.875 10 0 59159 28800.00000 0 -20575056.662 12882214.572 7765405.855 10 0 59159 29700.00000 0 -21206070.263 13335904.243 4667524.082 10 0 59159 30600.00000 0 -21464390.981 13645207.368 1478691.437 10 0 59159 31500.00000 0 -21368299.637 13757485.797 -1738968.035 10 0 59159 32400.00000 0 -20948015.846 13626305.733 -4922702.830 10 0 59159 33300.00000 0 -20244290.823 13213630.424 -8010374.345 10 0 59159 34200.00000 0 -19306568.299 12491669.680 -10941688.795 10 0 59159 35100.00000 0 -18190792.070 11444305.088 -13659394.571 10 0 59159 36000.00000 0 -16956954.255 10068027.966 -16110419.601 10 0 59159 36900.00000 0 -15666489.696 8372348.286 -18246924.448 10 0 59159 37800.00000 0 -14379628.557 6379655.665 -20027249.037 10 0 59159 38700.00000 0 -13152820.775 4124537.295 -21416733.390 10 0 59159 39600.00000 0 -12036342.634 1652581.246 -22388395.676 10 0 59159 40500.00000 0 -11072187.349 -981284.428 -22923454.358 10 0 59159 41400.00000 0 -10292328.874 -3714846.596 -23011684.685 10 0 59159 42300.00000 0 -9717431.642 -6480969.090 -22651603.468 10 0 59159 43200.00000 0 -9356059.394 -9210162.446 -21850479.795 10 0 59159 44100.00000 0 -9204414.616 -11833253.541 -20624172.898 10 0 59159 45000.00000 0 -9246617.378 -14284043.524 -18996801.881 10 0 59159 45900.00000 0 -9455509.327 -16501843.613 -17000255.291 10 0 59159 46800.00000 0 -9793946.547 -18433783.988 -14673551.483 10 0 59159 47700.00000 0 -10216524.494 -20036800.923 -12062063.543 10 0 59159 48600.00000 0 -10671660.435 -21279221.344 -9216624.919 10 0 59159 49500.00000 0 -11103944.133 -22141881.059 -6192533.883 10 0 59159 50400.00000 0 -11456656.860 -22618732.576 -3048476.812 10 0 59159 51300.00000 0 -11674352.211 -22716919.824 154608.643 10 0 59159 52200.00000 0 -11705390.198 -22456319.164 3354708.561 10 0 59159 53100.00000 0 -11504318.477 -21868568.081 6489923.478 10 0 59159 54000.00000 0 -11034001.394 -20995623.876 9499652.589 10 0 59159 54900.00000 0 -10267408.236 -19887913.741 12325749.577 10 0 59159 55800.00000 0 -9188986.449 -18602153.990 14913628.973 10 0 59159 56700.00000 0 -7795562.697 -17198929.371 17213303.226 10 0 59159 57600.00000 0 -6096734.052 -15740132.767 19180332.102 10 0 59159 58500.00000 0 -4114732.345 -14286370.953 20776667.632 10 0 59159 59400.00000 0 -1883766.092 -12894443.151 21971379.765 10 0 59159 60300.00000 0 551134.599 -11614995.978 22741249.923 10 0 59159 61200.00000 0 3135724.451 -10490451.203 23071221.673 10 0 59159 62100.00000 0 5808536.963 -9553291.695 22954700.059 10 0 59159 63000.00000 0 8503186.109 -8824776.493 22393693.456 10 0 59159 63900.00000 0 11150883.133 -8314138.740 21398794.200 10 0 59159 64800.00000 0 13683066.637 -8018300.609 19988996.908 10 0 59159 65700.00000 0 16034038.769 -7922118.314 18191356.018 10 0 59159 66600.00000 0 18143499.211 -7999148.498 16040487.002 10 0 59159 67500.00000 0 19958872.014 -8212905.479 13577918.625 10 0 59159 68400.00000 0 21437328.010 -8518558.096 10851306.650 10 0 59159 69300.00000 0 22547417.255 -8864995.898 7913522.484 10 0 59159 70200.00000 0 23270241.746 -9197178.200 4821633.198 10 0 59159 71100.00000 0 23600117.437 -9458666.644 1635792.085 10 0 59159 72000.00000 0 23544695.936 -9594233.332 -1581938.497 10 0 59159 72900.00000 0 23124539.301 -9552432.477 -4768808.332 10 0 59159 73800.00000 0 22372164.790 -9288024.358 -7862619.474 10 0 59159 74700.00000 0 21330599.478 -8764146.242 -10802959.191 10 0 59159 75600.00000 0 20051506.057 -7954135.439 -13532399.647 10 0 59159 76500.00000 0 18592959.866 -6842924.490 -15997638.796 10 0 59159 77400.00000 0 17016972.483 -5427947.061 -18150558.163 10 0 59159 78300.00000 0 15386868.132 -3719514.302 -19949175.262 10 0 59159 79200.00000 0 13764625.366 -1740644.389 -21358470.908 10 0 59159 80100.00000 0 12208297.701 473648.183 -22351074.567 10 0 59159 81000.00000 0 10769622.960 2877573.833 -22907794.340 10 0 59159 81900.00000 0 9491922.460 5416248.054 -23017981.692 10 0 59159 82800.00000 0 8408378.200 8027759.347 -22679724.658 10 0 59159 83700.00000 0 7540759.490 10645537.617 -21899867.026 10 0 59159 84600.00000 0 6898650.803 13200923.408 -20693854.536 10 0 59159 85500.00000 0 6479211.108 15625830.098 -19085412.650 10 0 59160 0.00000 0 6267472.083 17855388.007 -17106063.761 10 0 59160 900.00000 0 6237159.943 19830460.461 -14794494.356 10 0 59160 1800.00000 0 6352003.302 21499928.165 -12195786.517 10 0 59160 2700.00000 0 6567469.966 22822647.135 -9360528.787 10 0 59160 3600.00000 0 6832856.957 23769001.749 -6343825.225 10 0 59160 4500.00000 0 7093644.575 24321989.138 -3204222.196 10 0 59160 5400.00000 0 7294014.238 24477792.636 -2574.011 10 0 59160 6300.00000 0 7379423.745 24245822.488 3199130.688 10 0 59160 7200.00000 0 7299131.714 23648224.293 6338959.383 10 0 59160 8100.00000 0 7008565.504 22718877.490 9356220.682 10 0 59160 9000.00000 0 6471433.830 21501926.928 12192622.032 10 0 59160 9900.00000 0 5661496.166 20049909.505 14793378.957 10 0 59160 10800.00000 0 4563915.296 18421554.000 17108255.976 10 0 59160 11700.00000 0 3176136.596 16679345.249 19092520.708 10 0 59160 12600.00000 0 1508256.988 14886953.055 20707794.298 10 0 59160 13500.00000 0 -417132.797 13106631.426 21922783.237 10 0 59160 14400.00000 0 -2565627.685 11396694.691 22713879.650 10 0 59160 15300.00000 0 -4892183.352 9809173.961 23065619.165 10 0 59160 16200.00000 0 -7342740.760 8387750.019 22970987.818 10 0 59160 17100.00000 0 -9856235.687 7166047.660 22431571.697 10 0 59160 18000.00000 0 -12366912.697 6166362.131 21457545.521 10 0 59160 18900.00000 0 -14806850.296 5398870.829 20067498.881 10 0 59160 19800.00000 0 -17108594.701 4861363.827 18288101.584 10 0 59160 20700.00000 0 -19207794.281 4539505.643 16153612.413 10 0 59160 21600.00000 0 -21045725.866 4407618.609 13705238.492 10 0 59160 22500.00000 0 -22571607.591 4429956.391 10990355.533 10 0 59160 23400.00000 0 -23744600.791 4562415.291 8061602.294 10 0 59160 24300.00000 0 -24535415.782 4754612.025 4975865.536 10 0 59160 25200.00000 0 -24927452.263 4952240.391 1793174.490 10 0 59160 26100.00000 0 -24917424.412 5099606.665 -1424473.521 10 0 59160 27000.00000 0 -24515442.440 5142235.108 -4614332.727 10 0 59160 27900.00000 0 -23744545.608 5029431.201 -7714148.763 10 0 59160 28800.00000 0 -22639705.407 4716691.530 -10663392.627 10 0 59160 29700.00000 0 -21246340.657 4167855.413 -13404462.640 10 0 59160 30600.00000 0 -19618407.534 3356904.248 -15883828.835 10 0 59160 31500.00000 0 -17816146.169 2269329.869 -18053095.363 10 0 59160 32400.00000 0 -15903580.207 903011.792 -19869958.554 10 0 59160 33300.00000 0 -13945876.359 -731435.324 -21299040.767 10 0 59160 34200.00000 0 -12006676.710 -2610859.658 -22312583.011 10 0 59160 35100.00000 0 -10145517.248 -4700307.698 -22890982.786 10 0 59160 36000.00000 0 -8415441.827 -6954266.180 -23023167.066 10 0 59160 36900.00000 0 -6860911.854 -9318357.745 -22706793.982 10 0 59160 37800.00000 0 -5516098.692 -11731418.508 -21948280.534 10 0 59160 38700.00000 0 -4403628.924 -14127869.755 -20762657.181 10 0 59160 39600.00000 0 -3533833.021 -16440283.840 -19173253.716 10 0 59160 40500.00000 0 -2904526.236 -18602036.675 -17211224.071 10 0 59160 41400.00000 0 -2501327.907 -20549936.086 -14914920.732 10 0 59160 42300.00000 0 -2298502.747 -22226716.658 -12329132.295 10 0 59160 43200.00000 0 -2260285.744 -23583297.952 -9504200.021 10 0 59160 44100.00000 0 -2342632.388 -24580713.198 -6495031.404 10 0 59160 45000.00000 0 -2495318.454 -25191629.672 -3360030.512 10 0 59160 45900.00000 0 -2664299.441 -25401399.293 -159966.106 10 0 59160 46800.00000 0 -2794229.443 -25208597.642 3043200.595 10 0 59160 47700.00000 0 -2831033.148 -24625030.844 6187506.095 10 0 59160 48600.00000 0 -2724422.939 -23675211.769 9212170.453 10 0 59160 49500.00000 0 -2430255.849 -22395328.664 12058756.858 10 0 59160 50400.00000 0 -1912632.079 -20831750.006 14672283.752 10 0 59160 51300.00000 0 -1145647.767 -19039128.047 17002269.534 10 0 59160 52200.00000 0 -114728.957 -17078179.512 19003691.339 10 0 59160 53100.00000 0 1182508.946 -15013234.871 20637840.878 10 0 59160 54000.00000 0 2735912.750 -12909656.557 21873062.379 10 0 59160 54900.00000 0 4522969.792 -10831231.696 22685359.567 10 0 59160 55800.00000 0 6509507.402 -8837645.872 23058860.707 10 0 59160 56700.00000 0 8650886.792 -6982141.121 22986133.064 10 0 59160 57600.00000 0 10893644.580 -5309454.071 22468340.358 10 0 59160 58500.00000 0 13177516.588 -3854119.051 21515239.275 10 0 59160 59400.00000 0 15437762.757 -2639206.394 20145013.666 10 0 59160 60300.00000 0 17607699.030 -1675548.671 18383947.704 10 0 59160 61200.00000 0 19621332.751 -961487.933 16265942.169 10 0 59160 62100.00000 0 21415992.992 -483155.532 13831880.932 10 0 59160 63000.00000 0 22934846.429 -215274.055 11128857.734 10 0 59160 63900.00000 0 24129192.994 -122448.881 8209276.451 10 0 59160 64800.00000 0 24960443.971 -160895.882 5129840.998 10 0 59160 65700.00000 0 25401697.664 -280532.770 1950453.735 10 0 59160 66600.00000 0 25438844.218 -427345.530 -1266956.055 10 0 59160 67500.00000 0 25071150.884 -545928.817 -4459650.176 10 0 59160 68400.00000 0 24311301.030 -582091.110 -7565320.966 10 0 59160 69300.00000 0 23184883.708 -485411.982 -10523326.158 10 0 59160 70200.00000 0 21729354.374 -211640.509 -13275893.015 10 0 59160 71100.00000 0 19992510.356 275169.620 -15769266.145 10 0 59160 72000.00000 0 18030545.836 1000881.366 -17954774.494 10 0 59160 72900.00000 0 15905769.298 1979929.600 -19789795.045 10 0 59160 73800.00000 0 13684080.887 3214469.099 -21238593.209 10 0 59160 74700.00000 0 11432317.319 4694052.436 -22273022.734 10 0 59160 75600.00000 0 9215577.188 6395851.995 -22873071.405 10 0 59160 76500.00000 0 7094639.850 8285416.796 -23027242.274 10 0 59160 77400.00000 0 5123586.530 10317931.810 -22732763.806 10 0 59160 78300.00000 0 3347722.902 12439926.155 -21995626.091 10 0 59160 79200.00000 0 1801889.011 14591357.593 -20830443.820 10 0 59160 80100.00000 0 509225.466 16707985.092 -19260150.234 10 0 59160 81000.00000 0 -519554.983 18723929.432 -17315529.586 10 0 59160 81900.00000 0 -1286362.927 20574314.386 -15034598.628 10 0 59160 82800.00000 0 -1805389.843 22197877.987 -12461850.505 10 0 59160 83700.00000 0 -2102245.306 23539445.265 -9647376.845 10 0 59160 84600.00000 0 -2212613.152 24552159.991 -6645885.919 10 0 59160 85500.00000 0 -2180485.613 25199383.464 -3515636.592 10 0 59161 0.00000 0 -2056051.766 25456182.649 -317309.049 10 0 59161 900.00000 0 -1893330.682 25310346.943 2887166.256 10 0 59161 1800.00000 0 -1747649.084 24762893.755 6035798.036 10 0 59161 2700.00000 0 -1673070.745 23828041.784 9067720.988 10 0 59161 3600.00000 0 -1719884.316 22532656.065 11924357.116 10 0 59161 4500.00000 0 -1932255.235 20915187.518 14550530.654 10 0 59161 5400.00000 0 -2346139.160 19024151.926 16895516.531 10 0 59161 6300.00000 0 -2987543.847 16916211.088 18914003.760 10 0 59161 7200.00000 0 -3871211.847 14653935.048 20566956.686 10 0 59161 8100.00000 0 -4999779.201 12303336.886 21822358.998 10 0 59161 9000.00000 0 -6363446.033 9931280.568 22655827.370 10 0 59161 9900.00000 0 -7940174.091 7602867.479 23051083.644 10 0 59161 10800.00000 0 -9696405.010 5378908.050 23000276.786 10 0 59161 11700.00000 0 -11588271.911 3313581.619 22504148.102 10 0 59161 12600.00000 0 -13563256.676 1452380.383 21572035.655 10 0 59161 13500.00000 0 -15562226.797 -169577.994 20221716.382 10 0 59161 14400.00000 0 -17521769.724 -1528799.152 18479087.065 10 0 59161 15300.00000 0 -19376729.615 -2614169.808 16377688.177 10 0 59161 16200.00000 0 -21062842.241 -3427192.094 13958077.541 10 0 59161 17100.00000 0 -22519358.724 -3981683.653 11267063.721 10 0 59161 18000.00000 0 -23691548.154 -4302954.845 8356812.205 10 0 59161 18900.00000 0 -24532973.167 -4426496.694 5283840.372 10 0 59161 19800.00000 0 -25007441.298 -4396234.252 2107919.962 10 0 59161 20700.00000 0 -25090547.779 -4262418.989 -1109091.498 10 0 59161 21600.00000 0 -24770742.406 -4079249.950 -4304466.975 10 0 59161 22500.00000 0 -24049873.124 -3902325.651 -7415848.918 10 0 59161 23400.00000 0 -22943181.333 -3786036.543 -10382484.957 10 0 59161 24300.00000 0 -21478747.588 -3781010.949 -13146434.174 10 0 59161 25200.00000 0 -19696410.212 -3931725.333 -15653718.280 10 0 59161 26100.00000 0 -17646202.290 -4274382.779 -17855393.122 10 0 59161 27000.00000 0 -15386373.392 -4835151.929 -19708517.954 10 0 59161 27900.00000 0 -12981080.220 -5628842.846 -21177002.300 10 0 59161 28800.00000 0 -10497844.589 -6658077.163 -22232313.113 10 0 59161 29700.00000 0 -8004886.697 -7912988.308 -22854028.318 10 0 59161 30600.00000 0 -5568446.531 -9371464.622 -23030226.313 10 0 59161 31500.00000 0 -3250206.285 -10999924.685 -22757704.646 10 0 59161 32400.00000 0 -1104921.538 -12754591.483 -22042024.808 10 0 59161 33300.00000 0 821640.466 -14583210.851 -20897383.664 10 0 59161 34200.00000 0 2494370.719 -16427140.912 -19346315.594 10 0 59161 35100.00000 0 3890028.934 -18223723.948 -17419232.669 10 0 59161 36000.00000 0 4997946.779 -19908840.499 -15153813.276 10 0 59161 36900.00000 0 5820197.526 -21419538.323 -12594252.414 10 0 59161 37800.00000 0 6371228.381 -22696626.143 -9790389.363 10 0 59161 38700.00000 0 6676974.166 -23687124.099 -6796730.486 10 0 59161 39600.00000 0 6773492.485 -24346469.183 -3671386.800 10 0 59161 40500.00000 0 6705180.231 -24640384.617 -474947.222 10 0 59161 41400.00000 0 6522648.280 -24546336.396 2730690.750 10 0 59161 42300.00000 0 6280344.926 -24054517.603 5883510.488 10 0 59161 43200.00000 0 6034028.577 -23168320.783 8922563.520 10 0 59161 44100.00000 0 5838195.886 -21904279.787 11789132.692 10 0 59161 45000.00000 0 5743572.881 -20291484.304 14427849.874 10 0 59161 45900.00000 0 5794773.632 -18370491.711 16787748.154 10 0 59161 46800.00000 0 6028223.818 -16191781.177 18823229.815 10 0 59161 47700.00000 0 6470435.467 -13813813.408 20494932.945 10 0 59161 48600.00000 0 7136704.719 -11300775.146 21770481.512 10 0 59161 49500.00000 0 8030287.257 -8720100.083 22625105.639 10 0 59161 50400.00000 0 9142086.595 -6139866.912 23042120.919 10 0 59161 51300.00000 0 10450869.694 -3626180.126 23013257.886 10 0 59161 52200.00000 0 11924003.008 -1240640.029 22538835.012 10 0 59161 53100.00000 0 13518680.695 961994.781 21627771.045 10 0 59161 54000.00000 0 15183596.575 2935856.728 20297435.075 10 0 59161 54900.00000 0 16860992.817 4645645.880 18573335.332 10 0 59161 55800.00000 0 18489002.224 6067864.103 16488650.609 10 0 59161 56700.00000 0 20004188.164 7191554.798 14083611.085 10 0 59161 57600.00000 0 21344177.003 8018516.432 11404738.325 10 0 59161 58500.00000 0 22450272.980 8562979.760 8503957.385 10 0 59161 59400.00000 0 23269945.184 8850761.228 5437596.828 10 0 59161 60300.00000 0 23759080.650 8917927.337 2265295.288 10 0 59161 61200.00000 0 23883906.648 8809025.878 -951164.119 10 0 59161 62100.00000 0 23622498.684 8574958.984 -4149068.276 10 0 59161 63000.00000 0 22965807.976 8270588.858 -7266012.506 10 0 59161 63900.00000 0 21918162.600 7952179.045 -10241137.022 10 0 59161 64800.00000 0 20497219.121 7674781.748 -13016335.239 10 0 59161 65700.00000 0 18733365.260 7489684.295 -15537408.252 10 0 59161 66600.00000 0 16668598.057 7442025.456 -17755140.836 10 0 59161 67500.00000 0 14354924.719 7568684.974 -19626276.270 10 0 59161 68400.00000 0 11852353.913 7896537.641 -21114369.696 10 0 59161 69300.00000 0 9226562.931 8441147.281 -22190502.542 10 0 59161 70200.00000 0 6546339.714 9205956.652 -22833843.913 10 0 59161 71100.00000 0 3880907.993 10182007.729 -23032048.362 10 0 59161 72000.00000 0 1297248.336 11348203.756 -22781483.049 10 0 59161 72900.00000 0 -1142472.616 12672101.166 -22087281.072 10 0 59161 73800.00000 0 -3383257.739 14111196.921 -20963221.321 10 0 59161 74700.00000 0 -5379322.437 15614655.740 -19431438.765 10 0 59161 75600.00000 0 -7095741.644 17125403.397 -17521972.343 10 0 59161 76500.00000 0 -8509634.450 18582497.088 -15272160.720 10 0 59161 77400.00000 0 -9610839.708 19923672.528 -12725899.030 10 0 59161 78300.00000 0 -10402057.661 21087960.552 -9932772.147 10 0 59161 79200.00000 0 -10898454.956 22018263.533 -6947082.177 10 0 59161 80100.00000 0 -11126752.734 22663783.996 -3826789.715 10 0 59161 81000.00000 0 -11123838.896 22982204.548 -632389.709 10 0 59161 81900.00000 0 -10934965.087 22941528.870 2574256.323 10 0 59161 82800.00000 0 -10611605.747 22521507.958 5731109.332 10 0 59161 83700.00000 0 -10209070.171 21714593.192 8777140.687 10 0 59161 84600.00000 0 -9783968.183 20526377.446 11653497.065 10 0 59161 85500.00000 0 -9391635.568 18975506.587 14304620.886 99